Weather in Prikumskiy

Russia / Republic of Kalmykia     45°15′05″N   45°49′05″E
temp.,
°C
wind,
m/s
gust,
m/s
humid.,
%
clouds,
%
prec.,
mm/h
press.,
hPa
HPBL,
m
18 april, sun
sun1800:00+13nw5772100 0.0 1021350
03:00+12n4683100 0.1 1021352
06:00+13nne2382100 0.0 1020270
09:00+14ne237197 0.0 1019539
12:00+14nne1181100 2.9 1018384
15:00+17e226694 3.1 1017822
18:00+17ene016298 0.0 1017525
21:00+15sse44775 0.0 101898
19 april, mon
mon1900:00+13se22845 0.0 101714
03:00+12s2286100 0.0 101616
06:00+13sw2381100 0.0 101766
09:00+12ssw3485100 1.4 1018187
12:00+14ssw2378100 1.3 1017350
15:00+16sw3475100 2.6 1016371
18:00+16ese117498 0.1 101518
21:00+15nne2279100 0.1 101624
20 april, tue
tue2000:00+14ene3482100 0.4 1015111
03:00+13e4878100 0.4 1014212
06:00+13ese71471100 0.0 1012358
09:00+17ese91455100 0.0 1012725
12:00+20ese121544100 0.0 1009954
15:00+21ese111442100 0.0 1009910
18:00+18ese122050100 0.0 1007639
21:00+16ese81753100 0.0 1010618
21 april, wed
wed2100:00+15s2363100 0.0 1012114
03:00+14ene4774100 0.4 1013254
06:00+13nne6881100 0.2 1015356
09:00+14nnw61082100 0.2 1018747
12:00+13nw7979100 1.1 1020588
15:00+12nw5774100 2.2 1021479
18:00+12nnw4776100 0.0 1021316
21:00+12nnw357897 0.0 1023142
22 april, thu
thu2200:00+11n3681100 0.0 1022156
03:00+11nw3782100 0.0 1022203
06:00+11nnw4884100 0.0 1022353
09:00+15n7967100 0.0 1021752
12:00+15n6856100 0.1 10221090
15:00+16nne5756100 0.2 10221311
18:00+14nne455992 0.0 1022443
21:00+12nne356548 0.0 1023126